Location: Allens Landing
(37.8284°N, 89.7284°W)
Time: 12:28:51
(UTC+00:00)

Vanguard 2 - Pass Details

Date: 16 December 2025
Orbit: 552 x 2898 km, 32.9° (Epoch: 13 January)

Event Time Altitude Azimuth Distance (km) Brightness Sun altitude
Exits shadow 12:14:06 - 255° (WSW) 1,927 9.1 -10.5°
Reaches altitude 10° 12:14:24 10° 252° (WSW) 1,827 9.0 -10.4°
Maximum altitude 12:17:44 25° 195° (SSW) 1,205 8.6 -9.8°
Drops below altitude 10° 12:21:39 10° 139° (SE) 2,170 11.0 -9.1°
Sets 12:24:47 0° 127° (SE) 3,366 12.7 -8.5°
